Tracking 27382 objects as of 4-Jun-2023
HD Live streaming from Space Station
objects crossing your sky now

THOR ABLESTAR DEB

Track THOR ABLESTAR DEB now!
10-day predictions


NORAD ID: 548
Int'l Code: 1961-015GH
Perigee: 593.5 km
Apogee: 762.5 km
Inclination: 66.7 °
Period: 98.2 minutes
Semi major axis: 7048 km
RCS: 0.028 m2 (small)
Launch date: June 29, 1961
Source: United States (US)
Launch site: AIR FORCE EASTERN TEST RANGE (AFETR)

Note: This is SATELLITE DEBRIS
Your satellite tracking list
Your tracking list is empty




NASA's NSSDC Master Catalog

Two Line Element Set (TLE):
1 00548U 61015GH  23155.41553455  .00001455  00000-0  25232-3 0  9990
2 00548  66.6706 171.3334 0119855 248.6201 110.2093 14.66944578240684
Source of the keplerian elements: AFSPC